Home   Weather   Glacier National Park   Past weeks
Flag for USA

Past Weather in Glacier National Park, Montana, USA — Yesterday and Last 2 Weeks

Now
51 °F

Passing clouds.


Feels Like: 49 °F
Forecast: 62 / 43 °F
Wind: 6 mph from Northeast

Location: Kalispell - Glacier Park International

Current Time: Apr 24, 2019 at 12:22:18 am

Latest Report: Apr 23, 2019 at 11:55 pm


Visibility: 10 mi

Pressure: 29.95 "Hg

Humidity: 66%

Dew Point: 40 °F

Location of Glacier National ParkLocation

Past Weather in Glacier National Park — Graph

°F

Glacier National Park Temperature Yesterday

Maximum temperature yesterday: 65 °F (at 1:55 pm)
Minimum temperature yesterday: 51 °F (at 4:55 am)
Average temperature yesterday: 57 °F

High & Low Weather Summary for the Past Weeks

 TemperatureHumidityPressure
High67 °F (Apr 22, 4:36 pm)100% (Apr 10, 8:36 am)30.28 "Hg (Apr 10, 8:36 am)
Low28 °F (Apr 12, 2:38 am)22% (Apr 22, 4:36 pm)29.66 "Hg (Apr 14, 6:55 am)
Average44 °F72%29.96 "Hg
* Reported Apr 8 10:55 pm — Apr 23 10:55 pm, Glacier National Park. Weather by CustomWeather, © 2019

Note: Actual official high and low records may vary slightly from our data, if they occured in-between our weather recording intervals... More about our weather records

Advertising

Glacier National Park Weather History for the Previous 24 Hours

Scroll right to see more
 ConditionsComfort  
Time TempWeatherWind HumidityBarometerVisibility
10:55 pm
Tue, Apr 23
53 °FOvercast.9 mph56%29.93 "Hg10 mi
9:55 pm56 °FOvercast.12 mph55%29.93 "Hg10 mi
8:55 pm55 °FOvercast.9 mph64%29.92 "Hg10 mi
7:55 pm57 °FMore clouds than sun.10 mph60%29.92 "Hg10 mi
6:55 pm62 °FOvercast.15 mph43%29.92 "Hg10 mi
5:55 pm63 °FPartly sunny.12 mph38%29.92 "Hg10 mi
4:55 pm64 °FPartly sunny.14 mph40%29.93 "Hg10 mi
3:55 pm63 °FMore clouds than sun.15 mph40%29.93 "Hg10 mi
2:55 pm62 °FMostly cloudy.17 mph43%29.93 "Hg10 mi
1:55 pm65 °FPassing clouds.20 mph40%29.94 "Hg10 mi
12:55 pm61 °FMostly cloudy.16 mph46%29.97 "Hg10 mi
11:55 am61 °FOvercast.16 mph46%30.00 "Hg10 mi
10:55 am57 °FMore clouds than sun.13 mph55%30.02 "Hg10 mi
9:55 am56 °FMostly cloudy.6 mph58%30.02 "Hg10 mi
8:55 am52 °FMostly cloudy.No wind66%30.04 "Hg10 mi
7:55 am51 °FMostly cloudy.5 mph66%30.03 "Hg10 mi
6:55 am51 °FOvercast.8 mph69%30.02 "Hg10 mi
5:55 am51 °FMostly cloudy.8 mph69%30.02 "Hg10 mi
4:55 am51 °FOvercast.10 mph66%30.01 "Hg10 mi
3:55 am53 °FMostly cloudy.5 mph52%30.01 "Hg10 mi
2:55 am55 °FMostly cloudy.5 mph42%30.01 "Hg10 mi
1:55 am56 °FMostly cloudy.6 mph39%30.02 "Hg10 mi
12:55 am54 °FMostly cloudy.8 mph45%30.03 "Hg10 mi
Weather by CustomWeather, © 2019

See weather overview